Regional Weather Roundup
Issued by NWS Midland/Odessa, TX

Skip options and go directly to product.
Home | Oldest Version | Previous Version | Current Version | All | Text Only | Save Text | Print | Product List | Glossary On

Skip product version selection by date and time.   
859
ASUS44 KMAF 241610
RWRMAF
MIDLAND AREA WEATHER ROUNDUP
NATIONAL WEATHER SERVICE MIDLAND TX
1100 AM CDT FRI OCT 24 2014

...IN SOUTHWEST TEXAS AND SOUTHEAST NEW MEXICO...

CITY           SKY/WX    TMP DP  RH WIND       PRES   REMARKS
ALPINE         SUNNY     73  54  52 W9        30.35S
ANDREWS        FAIR      72  60  65 SW7       30.21S
ARTESIA        NOT AVBL
BIG SPRING     SUNNY     65  63  94 S6        30.22S
CARLSBAD         N/A     65  59  81 MISG      30.21R
DRYDEN           N/A     67  64  90 W7        30.19S
FORT STOCKTON  SUNNY     75  59  57 W9        30.22R
GUAD PASS      SUNNY     62  50  64 SW13      30.35R
HOBBS          SUNNY     66  61  82 S5        30.24R
MARFA          SUNNY     66  57  72 CALM      30.35R
MIDLAND AIRPK  SUNNY     73  61  65 S7        30.21R
MIDLAND INTL   SUNNY     73  60  63 SW8       30.20R
ODESSA         SUNNY     72  61  68 SW7       30.21S
PECOS          PTSUNNY   60  59  97 CALM      30.21S FOG
PRESIDIO       FAIR      73  58  60 E6        30.25R
SEMINOLE       SUNNY     69  61  75 SW6       30.23S
SNYDER         FOG       61  61  99 SW7       30.20S VSB 1/4
WINK           CLOUDY    61  32  33 SE3       30.20R
$$
...OTHER STATIONS IN TEXAS...

CITY           SKY/WX    TMP DP  RH WIND       PRES   REMARKS
ABILENE        SUNNY     75  61  61 SW10      30.18R
AMARILLO       SUNNY     68  54  60 W3        30.18R
AUSTIN         MOSUNNY   72  57  59 E5        30.19S
BROWNSVILLE    SUNNY     82  66  58 N7        30.14S
CORPUS CHRISTI MOSUNNY   77  65  66 N7        30.16R
DALLAS FTW     MOSUNNY   71  54  54 S12       30.17S
DEL RIO        SUNNY     71  63  75 SE7       30.18R
EL PASO        SUNNY     66  52  60 CALM      30.27R
HOUSTON INT    SUNNY     68  52  56 NE5       30.18S
LUBBOCK        SUNNY     71  59  65 SW12      30.19S
SAN ANGELO     SUNNY     73  61  65 SW5       30.19S
SAN ANTONIO    SUNNY     76  60  57 S5        30.20R
WACO           SUNNY     71  56  58 S9        30.19R
WICHITA FALLS  NOT AVBL
$$
...OTHER LOCATIONS IN NEW MEXICO...

CITY           SKY/WX    TMP DP  RH WIND       PRES   REMARKS
ALAMAGORDO     NOT AVBL
ALBUQUERQUE    MOSUNNY   59  33  37 NE8       30.36R
CANNON AFB     SUNNY     65  44  46 W10       30.22S
CLOVIS         SUNNY     68  45  42 W13       30.24S
HOLLOMAN AFB   SUNNY     62  50  64 SE5       30.27R
ROSWELL        SUNNY     61  54  77 NE3       30.22R
RUIDOSO        SUNNY     61  39  44 SW7       30.40R
SANTA FE       SUNNY     58  31  35 N14       30.37R
TRUTH OR CONSE SUNNY     64  45  49 NE6       30.31R
TUCUMCARI      SUNNY     65  40  39 W6        30.20S
$$

USA.gov is the U.S. government's official web portal to all federal, state and local government web resources and services.